Location: Nitra
(0.0000°N, 18.0833°E)
Time: 06:02:02
(UTC+01:00)

Cosmos 1758 Rocket - Pass Details

Date: 24 January 2021
Orbit: 601 x 636 km, 82.5° (Epoch: 04 March)

Event Time Altitude Azimuth Distance (km) Brightness Sun altitude
Rises 18:26:14 0° 191° (S) 2,872 7.4 -6.2°
Reaches altitude 10° 18:28:28 10° 194° (SSW) 1,971 6.6 -6.8°
Maximum altitude 18:32:46 59° 274° (W) 714 4.3 -7.8°
Drops below altitude 10° 18:37:05 10° 353° (N) 1,983 6.0 -8.8°
Sets 18:39:21 0° 357° (N) 2,892 6.8 -9.3°
